Regional Weather Roundup
Issued by NWS Jackson, KY

Home | Current Version | Previous Version | Graphics & Text | Print | Product List | Glossary On
Versions: 1 2 3 4 5 6 7 8 9 10 11 12 13 14 15 16 17 18 19 20 21 22 23 24 25 26 27
000
ASUS43 KJKL 190310
RWRJKL

EAST KENTUCKY HOURLY WEATHER ROUNDUP
NATIONAL WEATHER SERVICE JACKSON KY
1100 PM EDT WED APR 18 2018

NOTE: "FAIR" INDICATES FEW OR NO CLOUDS BELOW 12,000 FEET WITH
NO SIGNIFICANT WEATHER AND/OR OBSTRUCTIONS TO VISIBILITY.

* THESE REPORTS ARE NOT UNDER NWS QUALITY CONTROL AND MAY NOT
  REPORT WEATHER SUCH AS PRECIPITATION AND FOG.

KYZ079-080-083-085-087-088-110-112-115-119-120-190400
...EASTERN KENTUCKY...

CITY           SKY/WX    TMP DP  RH WIND       PRES   REMARKS
JACKSON        MOCLDY    67  52  58 VRB7G22   29.74R
LONDON         MOCLDY    66  53  63 SW15G25   29.80R
SOMERSET*      MOCLDY    64  54  68 SW12G21   29.81S
MONTICELLO*    MOCLDY    65  56  72 SW22G32   29.82S
WILLIAMSBURG*  MOCLDY    64  55  72 SW6G16    29.81F
MIDDLESBORO*     N/A     67  53  59 W5        29.82S
HARLAN APT*      N/A     67  50  56 W7        29.81S
PIKE CO APT*     N/A     68  51  55 SW7       29.73S
BIG SANDY APT*   N/A     69  52  54 SW14G22   29.71S
MOREHEAD APT*  LGT RAIN  59  55  88 W8G16     29.78R
ASHLAND*       RAIN      59  57  94 NW10G28   29.70R
$$

KYZ035-036-041-042-044-050-067-078-099-190400
...CENTRAL KENTUCKY...

CITY           SKY/WX    TMP DP  RH WIND       PRES   REMARKS
MT STERLING*   LGT RAIN  55  55 100 W8        29.80R
FLEMING/MASON* CLOUDY    57  52  82 NW13G22   29.77R
DANVILLE*      CLOUDY    57  54  88 NW7       29.83R
LEXINGTON      CLOUDY    58  49  72 NW17G28   29.81R
FRANKFORT        N/A     56  43  61 NW12G26   29.81R
LOUISVILLE       N/A     53  38  56 NW21G30   29.87R
GLASGOW*       MOCLDY    62  46  56 NW15G24   29.85R
BOWLING GREEN  MOCLDY    62  45  53 NW14G25   29.88R
$$

KYZ091>093-OHZ055-061-077-WVZ005-015-034-035-042-190400
...SOUTHERN OHIO/WEST VIRGINIA...

CITY           SKY/WX    TMP DP  RH WIND       PRES   REMARKS
COVINGTON        N/A     50  36  58 NW22G36   29.80R
COLUMBUS       LGT RAIN  47  44  90 N7        29.74R
DAYTON         CLOUDY    46  43  89 NW9       29.78R
WILMINGTON     CLOUDY    49  47  93 NW6       29.75R
HUNTINGTON     CLOUDY    71  50  47 SW18G28   29.64S
CHARLESTON       N/A     60  45  57 SE3       29.64F
PINEVILLE*       N/A     67  49  52 MISG        N/A
BECKLEY          N/A     67  45  45 SW13G24   29.70F
BLUEFIELD        N/A     64  48  56 W21G32    29.75F
LOGAN CO APT*    N/A     70  50  49 SW22G29   29.69S
$$

VAZ002-007-008-TNZ017-027-036-066-071-190400
...SOUTHWEST VIRGINIA/EAST TENNESSEE...

CITY           SKY/WX    TMP DP  RH WIND       PRES   REMARKS
WISE*            N/A     64  52  63 SW18G26   29.82S
JONESVILLE*      N/A     66  54  63 SW7       29.84S
ABINGDON*      MOCLDY    71  55  57 W17G28    29.80S
BRISTOL          N/A     71  56  58 SW18G26   29.81R
SEVIERVILLE*   CLOUDY    73  54  49 W10       29.84S
KNOXVILLE      MOCLDY    69  57  65 SW17      29.85S
LAFOLLETTE*    CLEAR     68  54  60 SW9G23    29.86S
OAK RIDGE        N/A     70  57  63 VRB6      29.86S
CROSSVILLE       N/A     62  53  72 VRB7      29.88F
NASHVILLE      CLOUDY    64  60  87 SW5       29.87R
$$

...KEY TO REMARKS...
VSB - VISIBILITY IN MILES
WCI - WIND CHILL INDEX
HX  - HEAT INDEX

$$




USA.gov is the U.S. government's official web portal to all federal, state and local government web resources and services.